QPF
0.01 0.01 0.02 0.02 0.01 0.00 0.01 0.01 0.02 0.02 0.02 0.03 0.03 0.03 0.03 0.03 0.03 0.02 0.04 0.05 0.06 0.06 0.05 0.04 0.04 0.06 0.07 0.08 0.09 0.11 0.13 0.11 0.09 0.07 0.06 0.04 0.03 0.02 0.01 0.01 0.00 0.01 0.04
0.02 0.02 0.02 0.02 0.01 0.01 0.01 0.01 0.02 0.02 0.03 0.03 0.03 0.03 0.03 0.03 0.03 0.02 0.02 0.03 0.04 0.04 0.04 0.04 0.04 0.05 0.06 0.08 0.08 0.09 0.12 0.14 0.12 0.10 0.07 0.06 0.05 0.04 0.02 0.01 0.01 0.01 0.03
0.02 0.02 0.01 0.01 0.01 0.01 0.01 0.01 0.01 0.01 0.02 0.03 0.03 0.03 0.03 0.03 0.04 0.03 0.01 0.01 0.02 0.03 0.03 0.04 0.04 0.05 0.06 0.08 0.09 0.08 0.09 0.12 0.13 0.10 0.09 0.06 0.04 0.03 0.02 0.02 0.01 0.01 0.02
0.01 0.01 0.01 0.01 0.00 0.00 0.00 0.01 0.01 0.01 0.02 0.03 0.02 0.03 0.03 0.03 0.03 0.04 0.03 0.01 0.01 0.01 0.01 0.02 0.04 0.06 0.05 0.06 0.07 0.08 0.08 0.09 0.11 0.10 0.08 0.06 0.04 0.02 0.02 0.02 0.01 0.01 0.01
0.02 0.02 0.01 0.01 0.00 0.00 0.01 0.01 0.01 0.01 0.01 0.02 0.03 0.02 0.02 0.02 0.02 0.03 0.04 0.03 0.02 0.01 0.01 0.02 0.02 0.04 0.05 0.04 0.05 0.06 0.07 0.07 0.07 0.10 0.08 0.05 0.04 0.02 0.02 0.02 0.02 0.02 0.01
0.03 0.03 0.02 0.02 0.01 0.01 0.01 0.01 0.01 0.01 0.01 0.02 0.02 0.02 0.02 0.02 0.02 0.02 0.02 0.03 0.03 0.02 0.02 0.02 0.02 0.03 0.05 0.05 0.04 0.04 0.06 0.06 0.06 0.06 0.07 0.06 0.05 0.03 0.02 0.01 0.01 0.01 0.01
0.02 0.02 0.02 0.02 0.02 0.02 0.01 0.01 0.02 0.02 0.02 0.02 0.02 0.03 0.02 0.02 0.02 0.02 0.02 0.02 0.03 0.03 0.03 0.02 0.02 0.03 0.05 0.06 0.04 0.04 0.04 0.06 0.06 0.05 0.05 0.04 0.04 0.03 0.02 0.02 0.01 0.02 0.02
0.02 0.02 0.02 0.02 0.02 0.02 0.02 0.01 0.02 0.02 0.02 0.02 0.02 0.02 0.02 0.02 0.03 0.02 0.02 0.02 0.02 0.02 0.02 0.03 0.03 0.04 0.05 0.06 0.04 0.03 0.03 0.05 0.06 0.06 0.05 0.04 0.03 0.03 0.03 0.03 0.02 0.02 0.02
0.01 0.02 0.02 0.03 0.03 0.03 0.02 0.01 0.01 0.01 0.02 0.02 0.02 0.02 0.02 0.02 0.02 0.02 0.02 0.02 0.02 0.02 0.02 0.02 0.03 0.04 0.05 0.05 0.05 0.03 0.03 0.04 0.05 0.06 0.07 0.04 0.03 0.03 0.04 0.04 0.03 0.02 0.02
0.02 0.02 0.03 0.04 0.05 0.05 0.05 0.03 0.01 0.01 0.01 0.02 0.02 0.02 0.02 0.02 0.01 0.02 0.02 0.01 0.01 0.02 0.02 0.02 0.02 0.04 0.05 0.04 0.05 0.03 0.03 0.04 0.05 0.05 0.06 0.06 0.04 0.03 0.04 0.04 0.03 0.03 0.03
0.03 0.03 0.03 0.04 0.06 0.07 0.07 0.06 0.02 0.02 0.02 0.02 0.02 0.02 0.02 0.02 0.02 0.01 0.01 0.01 0.01 0.01 0.02 0.02 0.03 0.04 0.05 0.03 0.04 0.03 0.03 0.04 0.05 0.05 0.05 0.06 0.05 0.04 0.03 0.03 0.03 0.03 0.03
0.03 0.04 0.04 0.05 0.06 0.09 0.09 0.07 0.05 0.03 0.02 0.02 0.02 0.03 0.02 0.02 0.02 0.01 0.01 0.01 0.01 0.01 0.02 0.02 0.03 0.05 0.04 0.03 0.03 0.03 0.04 0.05 0.05 0.04 0.04 0.05 0.05 0.04 0.04 0.03 0.02 0.02 0.02
0.04 0.04 0.04 0.05 0.07 0.09 0.09 0.08 0.08 0.06 0.04 0.03 0.03 0.04 0.03 0.02 0.01 0.01 0.01 0.01 0.01 0.01 0.02 0.03 0.04 0.04 0.03 0.03 0.03 0.04 0.04 0.05 0.04 0.04 0.03 0.03 0.04 0.04 0.04 0.03 0.02 0.02 0.02
0.04 0.04 0.05 0.05 0.08 0.09 0.08 0.07 0.09 0.11 0.09 0.05 0.04 0.05 0.04 0.02 0.02 0.01 0.01 0.01 0.02 0.03 0.03 0.03 0.04 0.04 0.03 0.03 0.04 0.05 0.05 0.05 0.05 0.05 0.03 0.03 0.03 0.04 0.03 0.03 0.02 0.02 0.02
0.05 0.05 0.05 0.06 0.07 0.09 0.08 0.06 0.06 0.09 0.12 0.10 0.07 0.06 0.05 0.04 0.03 0.03 0.02 0.02 0.03 0.04 0.04 0.04 0.05 0.06 0.04 0.04 0.04 0.05 0.05 0.05 0.05 0.05 0.04 0.03 0.03 0.04 0.03 0.03 0.03 0.03 0.02
0.05 0.05 0.06 0.06 0.07 0.09 0.09 0.07 0.06 0.07 0.10 0.11 0.11 0.08 0.07 0.06 0.05 0.04 0.03 0.03 0.04 0.05 0.06 0.06 0.06 0.07 0.07 0.06 0.05 0.04 0.05 0.05 0.06 0.05 0.05 0.05 0.04 0.04 0.04 0.04 0.04 0.03 0.03
0.06 0.05 0.06 0.06 0.08 0.10 0.10 0.08 0.07 0.06 0.08 0.09 0.09 0.10 0.09 0.08 0.06 0.06 0.06 0.06 0.05 0.06 0.07 0.07 0.07 0.07 0.08 0.08 0.07 0.06 0.06 0.06 0.06 0.06 0.06 0.06 0.06 0.06 0.05 0.05 0.05 0.04 0.04
0.05 0.05 0.05 0.05 0.06 0.09 0.11 0.09 0.08 0.07 0.08 0.07 0.07 0.07 0.08 0.08 0.08 0.08 0.08 0.08 0.08 0.08 0.09 0.08 0.08 0.08 0.08 0.08 0.08 0.08 0.07 0.08 0.09 0.08 0.07 0.07 0.07 0.07 0.06 0.06 0.05 0.04 0.04
0.03 0.05 0.06 0.05 0.05 0.07 0.08 0.09 0.08 0.07 0.07 0.07 0.07 0.07 0.07 0.08 0.08 0.08 0.08 0.08 0.08 0.09 0.08 0.08 0.08 0.08 0.08 0.08 0.08 0.08 0.07 0.08 0.09 0.10 0.10 0.09 0.08 0.08 0.08 0.07 0.07 0.06 0.05
0.03 0.04 0.05 0.06 0.05 0.06 0.06 0.08 0.08 0.07 0.08 0.08 0.08 0.07 0.07 0.08 0.08 0.08 0.08 0.08 0.08 0.08 0.08 0.08 0.07 0.07 0.08 0.08 0.09 0.09 0.09 0.09 0.09 0.10 0.11 0.11 0.09 0.09 0.08 0.08 0.07 0.07 0.05
0.02 0.02 0.03 0.05 0.06 0.06 0.06 0.07 0.08 0.08 0.08 0.07 0.07 0.07 0.07 0.07 0.07 0.07 0.07 0.07 0.08 0.09 0.08 0.07 0.07 0.07 0.08 0.09 0.09 0.09 0.09 0.10 0.10 0.10 0.10 0.10 0.10 0.10 0.09 0.07 0.06 0.05 0.05
0.02 0.02 0.02 0.03 0.04 0.06 0.06 0.07 0.08 0.08 0.07 0.07 0.06 0.06 0.07 0.07 0.06 0.07 0.07 0.06 0.07 0.07 0.07 0.07 0.06 0.06 0.07 0.08 0.09 0.09 0.10 0.10 0.10 0.09 0.08 0.08 0.08 0.08 0.08 0.07 0.07 0.06 0.06
0.02 0.02 0.02 0.02 0.03 0.04 0.06 0.07 0.08 0.09 0.08 0.07 0.06 0.06 0.07 0.06 0.06 0.06 0.05 0.06 0.06 0.06 0.07 0.07 0.07 0.05 0.05 0.05 0.06 0.07 0.09 0.10 0.10 0.09 0.08 0.07 0.06 0.05 0.06 0.07 0.07 0.06 0.06
0.01 0.01 0.02 0.02 0.02 0.03 0.04 0.05 0.05 0.07 0.08 0.08 0.08 0.07 0.07 0.07 0.07 0.06 0.06 0.05 0.06 0.05 0.06 0.06 0.06 0.05 0.05 0.05 0.05 0.06 0.07 0.08 0.08 0.09 0.07 0.06 0.05 0.05 0.05 0.05 0.06 0.06 0.06
0.01 0.01 0.01 0.01 0.01 0.02 0.02 0.03 0.03 0.04 0.04 0.05 0.06 0.07 0.07 0.08 0.08 0.07 0.07 0.06 0.06 0.06 0.06 0.05 0.05 0.05 0.05 0.06 0.06 0.07 0.07 0.06 0.07 0.07 0.07 0.06 0.06 0.05 0.04 0.04 0.04 0.05 0.05
0.00 0.00 0.00 0.00 0.01 0.01 0.01 0.02 0.02 0.03 0.03 0.03 0.03 0.04 0.04 0.05 0.06 0.06 0.07 0.07 0.06 0.06 0.06 0.05 0.05 0.05 0.05 0.06 0.05 0.05 0.06 0.06 0.06 0.07 0.06 0.06 0.06 0.06 0.04 0.03 0.03 0.04 0.04
MSLP
1016.18 1016.99 1017.80 1018.59 1019.35 1020.06 1020.74 1021.38 1022.01 1022.61 1023.18 1023.72 1024.20 1024.61 1024.94 1025.18 1025.34 1025.43 1025.47 1025.46 1025.45 1025.43 1025.43 1025.44 1025.45 1025.46 1025.45 1025.41 1025.30 1025.13 1024.87 1024.54 1024.14 1023.68 1023.17 1022.62 1022.07 1021.53 1021.00 1020.51 1020.06 1019.66 1019.29
1015.33 1016.15 1017.00 1017.83 1018.65 1019.43 1020.18 1020.92 1021.62 1022.31 1022.97 1023.58 1024.13 1024.58 1024.94 1025.20 1025.35 1025.42 1025.43 1025.41 1025.37 1025.34 1025.33 1025.34 1025.37 1025.40 1025.41 1025.40 1025.33 1025.20 1025.00 1024.73 1024.39 1023.98 1023.53 1023.03 1022.51 1021.97 1021.43 1020.91 1020.41 1019.94 1019.52
1014.66 1015.47 1016.32 1017.18 1018.04 1018.88 1019.70 1020.50 1021.30 1022.07 1022.80 1023.47 1024.07 1024.56 1024.94 1025.20 1025.34 1025.39 1025.38 1025.32 1025.26 1025.21 1025.19 1025.19 1025.21 1025.25 1025.27 1025.27 1025.23 1025.14 1025.01 1024.81 1024.55 1024.25 1023.88 1023.46 1023.00 1022.49 1021.96 1021.41 1020.86 1020.32 1019.82
1014.34 1015.11 1015.94 1016.79 1017.65 1018.52 1019.38 1020.23 1021.08 1021.90 1022.68 1023.40 1024.02 1024.53 1024.91 1025.16 1025.29 1025.32 1025.28 1025.21 1025.14 1025.07 1025.03 1025.01 1025.02 1025.03 1025.04 1025.04 1025.02 1024.97 1024.89 1024.78 1024.63 1024.43 1024.18 1023.86 1023.48 1023.03 1022.51 1021.94 1021.34 1020.73 1020.14
1014.52 1015.21 1015.97 1016.77 1017.60 1018.44 1019.29 1020.15 1021.00 1021.84 1022.62 1023.34 1023.96 1024.46 1024.83 1025.06 1025.17 1025.19 1025.15 1025.07 1024.99 1024.91 1024.86 1024.82 1024.80 1024.79 1024.77 1024.76 1024.73 1024.70 1024.67 1024.63 1024.58 1024.49 1024.36 1024.16 1023.87 1023.48 1022.99 1022.41 1021.77 1021.09 1020.41
1015.20 1015.79 1016.46 1017.17 1017.91 1018.68 1019.47 1020.28 1021.09 1021.88 1022.63 1023.31 1023.90 1024.36 1024.69 1024.90 1025.00 1025.02 1024.97 1024.90 1024.82 1024.75 1024.69 1024.64 1024.59 1024.54 1024.49 1024.43 1024.39 1024.36 1024.36 1024.37 1024.39 1024.40 1024.38 1024.27 1024.07 1023.75 1023.29 1022.71 1022.04 1021.31 1020.55
1016.31 1016.79 1017.33 1017.92 1018.54 1019.20 1019.89 1020.60 1021.32 1022.03 1022.70 1023.31 1023.82 1024.23 1024.52 1024.70 1024.78 1024.79 1024.76 1024.70 1024.64 1024.58 1024.52 1024.46 1024.38 1024.29 1024.19 1024.09 1024.01 1023.95 1023.94 1023.98 1024.05 1024.13 1024.18 1024.15 1024.02 1023.76 1023.34 1022.77 1022.08 1021.32 1020.52
1017.69 1018.05 1018.47 1018.91 1019.40 1019.92 1020.47 1021.06 1021.66 1022.26 1022.83 1023.34 1023.77 1024.10 1024.33 1024.46 1024.52 1024.52 1024.50 1024.46 1024.43 1024.38 1024.33 1024.26 1024.16 1024.03 1023.88 1023.72 1023.58 1023.48 1023.44 1023.47 1023.54 1023.65 1023.74 1023.77 1023.69 1023.47 1023.08 1022.53 1021.86 1021.09 1020.28
1019.14 1019.39 1019.67 1019.98 1020.33 1020.71 1021.13 1021.58 1022.06 1022.54 1022.99 1023.40 1023.73 1023.97 1024.13 1024.21 1024.24 1024.23 1024.21 1024.18 1024.16 1024.14 1024.09 1024.02 1023.89 1023.73 1023.53 1023.31 1023.11 1022.95 1022.85 1022.83 1022.88 1022.98 1023.07 1023.12 1023.07 1022.88 1022.53 1022.02 1021.37 1020.63 1019.86
1020.45 1020.60 1020.77 1020.96 1021.18 1021.44 1021.74 1022.08 1022.45 1022.82 1023.17 1023.47 1023.71 1023.87 1023.96 1023.98 1023.96 1023.92 1023.88 1023.84 1023.82 1023.80 1023.76 1023.68 1023.54 1023.34 1023.10 1022.83 1022.57 1022.34 1022.18 1022.10 1022.10 1022.15 1022.22 1022.26 1022.22 1022.05 1021.73 1021.27 1020.68 1020.00 1019.29
1021.45 1021.53 1021.61 1021.71 1021.84 1022.00 1022.22 1022.47 1022.76 1023.05 1023.33 1023.55 1023.71 1023.79 1023.80 1023.75 1023.67 1023.58 1023.50 1023.44 1023.40 1023.36 1023.31 1023.22 1023.07 1022.85 1022.58 1022.27 1021.95 1021.66 1021.44 1021.29 1021.22 1021.22 1021.25 1021.26 1021.21 1021.06 1020.78 1020.37 1019.85 1019.25 1018.63
1022.10 1022.11 1022.13 1022.16 1022.22 1022.34 1022.50 1022.72 1022.96 1023.21 1023.43 1023.60 1023.70 1023.71 1023.65 1023.53 1023.37 1023.22 1023.07 1022.97 1022.88 1022.82 1022.74 1022.64 1022.47 1022.25 1021.96 1021.62 1021.27 1020.93 1020.65 1020.44 1020.31 1020.24 1020.21 1020.19 1020.13 1019.99 1019.74 1019.39 1018.95 1018.45 1017.92
1022.42 1022.37 1022.33 1022.32 1022.35 1022.44 1022.58 1022.79 1023.02 1023.26 1023.46 1023.60 1023.66 1023.62 1023.49 1023.29 1023.06 1022.83 1022.61 1022.44 1022.30 1022.19 1022.08 1021.95 1021.78 1021.54 1021.25 1020.90 1020.52 1020.16 1019.83 1019.56 1019.37 1019.24 1019.17 1019.10 1019.02 1018.89 1018.69 1018.39 1018.03 1017.62 1017.18
1022.49 1022.39 1022.30 1022.26 1022.26 1022.34 1022.49 1022.70 1022.94 1023.19 1023.39 1023.53 1023.56 1023.48 1023.30 1023.04 1022.74 1022.42 1022.13 1021.88 1021.67 1021.51 1021.36 1021.20 1021.01 1020.77 1020.46 1020.11 1019.72 1019.33 1018.97 1018.66 1018.41 1018.23 1018.10 1018.01 1017.91 1017.78 1017.61 1017.37 1017.08 1016.75 1016.40
1022.43 1022.28 1022.14 1022.06 1022.05 1022.11 1022.27 1022.49 1022.75 1023.01 1023.23 1023.36 1023.38 1023.28 1023.06 1022.76 1022.39 1022.01 1021.65 1021.32 1021.05 1020.83 1020.63 1020.44 1020.22 1019.95 1019.64 1019.27 1018.87 1018.45 1018.05 1017.70 1017.40 1017.17 1016.99 1016.85 1016.74 1016.62 1016.47 1016.28 1016.05 1015.79 1015.52
1022.36 1022.13 1021.94 1021.82 1021.77 1021.82 1021.97 1022.20 1022.47 1022.74 1022.97 1023.11 1023.13 1023.02 1022.78 1022.45 1022.04 1021.61 1021.19 1020.81 1020.48 1020.19 1019.93 1019.69 1019.42 1019.12 1018.77 1018.37 1017.94 1017.48 1017.04 1016.63 1016.28 1015.99 1015.77 1015.59 1015.46 1015.33 1015.20 1015.05 1014.88 1014.69 1014.48
1022.31 1022.02 1021.76 1021.58 1021.50 1021.52 1021.65 1021.87 1022.14 1022.41 1022.64 1022.78 1022.81 1022.70 1022.47 1022.13 1021.71 1021.25 1020.80 1020.37 1019.98 1019.63 1019.30 1018.99 1018.66 1018.29 1017.88 1017.42 1016.92 1016.41 1015.90 1015.43 1015.01 1014.66 1014.38 1014.16 1013.99 1013.86 1013.74 1013.62 1013.50 1013.37 1013.23
1022.29 1021.93 1021.61 1021.38 1021.24 1021.23 1021.33 1021.52 1021.77 1022.03 1022.26 1022.41 1022.45 1022.35 1022.14 1021.81 1021.40 1020.94 1020.47 1020.01 1019.57 1019.16 1018.75 1018.35 1017.93 1017.46 1016.95 1016.40 1015.81 1015.21 1014.62 1014.07 1013.57 1013.15 1012.80 1012.53 1012.33 1012.18 1012.06 1011.97 1011.89 1011.82 1011.75
1022.24 1021.82 1021.45 1021.16 1020.98 1020.93 1020.99 1021.15 1021.38 1021.63 1021.85 1022.00 1022.05 1021.99 1021.80 1021.51 1021.13 1020.69 1020.22 1019.74 1019.25 1018.77 1018.28 1017.77 1017.23 1016.64 1016.01 1015.34 1014.63 1013.92 1013.23 1012.58 1011.99 1011.49 1011.07 1010.74 1010.49 1010.32 1010.20 1010.12 1010.08 1010.07 1010.07
1022.07 1021.61 1021.20 1020.88 1020.68 1020.59 1020.63 1020.77 1020.97 1021.20 1021.42 1021.58 1021.65 1021.62 1021.48 1021.23 1020.89 1020.48 1020.02 1019.53 1019.00 1018.45 1017.86 1017.24 1016.56 1015.84 1015.07 1014.26 1013.43 1012.60 1011.80 1011.05 1010.38 1009.78 1009.29 1008.90 1008.60 1008.38 1008.25 1008.17 1008.16 1008.19 1008.26
1021.70 1021.22 1020.81 1020.48 1020.27 1020.18 1020.21 1020.34 1020.53 1020.76 1020.98 1021.15 1021.25 1021.26 1021.16 1020.96 1020.67 1020.30 1019.85 1019.34 1018.78 1018.15 1017.47 1016.73 1015.93 1015.08 1014.17 1013.24 1012.29 1011.35 1010.45 1009.61 1008.84 1008.17 1007.60 1007.14 1006.77 1006.50 1006.33 1006.24 1006.23 1006.30 1006.43
1021.09 1020.62 1020.23 1019.93 1019.74 1019.67 1019.72 1019.85 1020.05 1020.29 1020.52 1020.71 1020.84 1020.89 1020.84 1020.69 1020.45 1020.10 1019.67 1019.15 1018.55 1017.87 1017.11 1016.27 1015.36 1014.39 1013.38 1012.34 1011.29 1010.27 1009.29 1008.38 1007.55 1006.80 1006.16 1005.61 1005.17 1004.83 1004.60 1004.47 1004.43 1004.50 1004.66
1020.25 1019.83 1019.48 1019.24 1019.10 1019.08 1019.16 1019.32 1019.55 1019.80 1020.05 1020.27 1020.43 1020.51 1020.50 1020.40 1020.19 1019.88 1019.46 1018.94 1018.31 1017.58 1016.76 1015.85 1014.86 1013.82 1012.73 1011.63 1010.53 1009.47 1008.44 1007.48 1006.59 1005.79 1005.06 1004.44 1003.90 1003.47 1003.15 1002.94 1002.85 1002.89 1003.05
1019.27 1018.90 1018.62 1018.45 1018.39 1018.44 1018.57 1018.78 1019.04 1019.31 1019.58 1019.82 1020.01 1020.12 1020.15 1020.08 1019.90 1019.62 1019.21 1018.69 1018.05 1017.29 1016.44 1015.49 1014.47 1013.40 1012.29 1011.17 1010.07 1009.00 1007.96 1006.98 1006.05 1005.19 1004.39 1003.66 1003.02 1002.47 1002.03 1001.72 1001.54 1001.51 1001.63
1018.26 1017.96 1017.76 1017.68 1017.70 1017.82 1018.01 1018.26 1018.55 1018.85 1019.14 1019.40 1019.60 1019.74 1019.79 1019.74 1019.59 1019.32 1018.93 1018.41 1017.78 1017.02 1016.17 1015.22 1014.21 1013.16 1012.08 1011.00 1009.92 1008.87 1007.85 1006.87 1005.91 1004.99 1004.11 1003.28 1002.51 1001.82 1001.24 1000.79 1000.49 1000.36 1000.40
1017.36 1017.13 1017.02 1017.02 1017.12 1017.30 1017.55 1017.84 1018.15 1018.47 1018.77 1019.03 1019.24 1019.39 1019.45 1019.42 1019.28 1019.02 1018.65 1018.15 1017.53 1016.81 1015.98 1015.08 1014.11 1013.12 1012.10 1011.08 1010.07 1009.06 1008.07 1007.09 1006.10 1005.12 1004.15 1003.19 1002.28 1001.43 1000.69 1000.09 999.65 999.39 999.33
Thickness
5500 5498 5495 5494 5492 5490 5489 5488 5487 5486 5485 5486 5488 5489 5491 5493 5496 5500 5504 5507 5510 5513 5518 5522 5527 5531 5535 5540 5545 5548 5551 5555 5559 5561 5562 5565 5569 5571 5574 5576 5578 5580 5581
5490 5488 5486 5483 5481 5480 5479 5478 5476 5475 5475 5476 5476 5477 5478 5480 5483 5487 5491 5495 5499 5501 5505 5510 5514 5519 5523 5528 5533 5537 5540 5543 5549 5552 5554 5555 5557 5559 5563 5565 5568 5569 5571
5481 5479 5476 5473 5471 5469 5468 5469 5467 5466 5465 5465 5465 5465 5466 5468 5471 5475 5479 5483 5487 5490 5494 5498 5503 5507 5512 5516 5521 5526 5530 5532 5536 5541 5545 5547 5549 5549 5552 5555 5558 5559 5561
5471 5468 5466 5463 5461 5459 5458 5457 5457 5456 5454 5454 5454 5454 5455 5457 5459 5461 5465 5470 5474 5478 5482 5486 5491 5495 5500 5505 5510 5515 5519 5522 5525 5529 5533 5537 5541 5541 5541 5544 5547 5549 5551
5460 5458 5456 5454 5451 5448 5446 5446 5446 5445 5444 5443 5443 5442 5443 5445 5447 5449 5453 5458 5462 5467 5470 5474 5478 5483 5489 5494 5499 5503 5507 5511 5516 5519 5522 5525 5528 5531 5533 5534 5536 5537 5540
5449 5447 5445 5442 5440 5437 5435 5434 5434 5434 5433 5433 5432 5432 5432 5433 5435 5438 5442 5446 5451 5455 5459 5462 5467 5472 5477 5482 5488 5492 5496 5500 5504 5508 5511 5515 5518 5520 5521 5523 5525 5527 5530
5438 5436 5433 5432 5430 5427 5425 5423 5423 5423 5423 5422 5422 5422 5422 5424 5426 5428 5432 5436 5440 5443 5447 5451 5456 5461 5467 5472 5477 5481 5485 5489 5493 5497 5500 5504 5507 5510 5512 5513 5513 5515 5518
5427 5425 5423 5421 5418 5417 5415 5413 5413 5414 5413 5413 5414 5414 5414 5415 5417 5420 5423 5426 5430 5434 5437 5441 5445 5451 5456 5461 5466 5470 5474 5478 5482 5486 5490 5493 5495 5499 5502 5504 5503 5504 5506
5416 5414 5413 5411 5408 5406 5405 5404 5404 5404 5405 5405 5406 5406 5405 5405 5407 5410 5413 5417 5420 5424 5428 5431 5435 5440 5445 5450 5455 5459 5463 5467 5471 5475 5478 5482 5485 5488 5492 5494 5496 5497 5499
5406 5404 5402 5401 5399 5397 5396 5395 5394 5395 5395 5396 5397 5398 5397 5397 5399 5401 5404 5408 5411 5414 5418 5422 5426 5430 5435 5440 5444 5448 5453 5456 5460 5464 5467 5471 5474 5477 5479 5483 5485 5487 5490
5395 5393 5391 5390 5388 5387 5386 5386 5386 5386 5387 5388 5389 5389 5389 5390 5391 5393 5397 5400 5403 5405 5409 5413 5417 5421 5425 5430 5435 5439 5443 5447 5450 5454 5457 5461 5464 5465 5468 5471 5474 5476 5479
5384 5382 5380 5379 5378 5378 5377 5377 5377 5378 5379 5380 5381 5381 5381 5382 5384 5387 5390 5392 5395 5398 5401 5404 5408 5413 5417 5421 5426 5430 5434 5437 5440 5444 5447 5450 5453 5455 5457 5461 5463 5466 5468
5375 5372 5370 5369 5368 5368 5368 5368 5368 5369 5371 5372 5372 5373 5374 5376 5378 5380 5383 5385 5387 5390 5392 5396 5400 5404 5409 5412 5417 5421 5425 5428 5432 5435 5438 5441 5442 5444 5447 5450 5453 5455 5458
5363 5361 5360 5359 5358 5358 5359 5360 5361 5361 5363 5365 5365 5366 5368 5369 5372 5375 5377 5378 5380 5382 5385 5389 5392 5396 5401 5404 5407 5411 5415 5418 5421 5425 5428 5431 5433 5435 5437 5440 5442 5444 5446
5352 5351 5350 5349 5349 5350 5350 5352 5353 5353 5355 5357 5358 5360 5361 5363 5364 5367 5370 5371 5373 5376 5379 5382 5385 5389 5393 5396 5399 5402 5406 5409 5412 5414 5417 5420 5423 5425 5428 5430 5432 5434 5435
5340 5339 5339 5339 5340 5341 5341 5343 5345 5346 5347 5349 5350 5352 5354 5356 5357 5360 5362 5364 5367 5370 5372 5376 5379 5383 5387 5390 5393 5396 5398 5401 5403 5405 5407 5410 5412 5414 5417 5420 5422 5425 5426
5328 5328 5328 5328 5328 5329 5331 5332 5334 5336 5338 5340 5342 5344 5345 5347 5349 5352 5354 5357 5359 5363 5366 5369 5372 5375 5379 5382 5385 5388 5390 5392 5394 5395 5397 5400 5402 5404 5405 5407 5410 5412 5414
5317 5317 5317 5317 5317 5318 5320 5322 5324 5326 5328 5331 5333 5335 5337 5339 5341 5343 5346 5349 5353 5356 5359 5362 5364 5367 5370 5374 5377 5379 5381 5382 5383 5386 5388 5389 5391 5392 5394 5395 5397 5399 5401
5304 5304 5305 5306 5307 5308 5310 5312 5314 5316 5318 5321 5324 5327 5328 5331 5333 5336 5338 5341 5345 5348 5351 5353 5356 5358 5361 5364 5368 5370 5371 5372 5373 5374 5376 5378 5379 5381 5383 5384 5385 5386 5388
5295 5295 5295 5296 5297 5298 5299 5302 5304 5306 5308 5310 5313 5316 5319 5322 5324 5327 5330 5333 5337 5340 5343 5345 5348 5350 5352 5355 5358 5361 5361 5361 5362 5363 5364 5366 5368 5369 5370 5372 5373 5374 5376
5285 5285 5285 5285 5286 5287 5289 5291 5293 5295 5297 5299 5302 5306 5309 5313 5316 5318 5321 5324 5327 5330 5333 5336 5338 5341 5343 5345 5348 5350 5350 5350 5351 5352 5353 5354 5356 5357 5359 5361 5362 5364 5364
5275 5275 5274 5274 5275 5276 5278 5280 5281 5284 5287 5290 5292 5296 5299 5302 5306 5308 5311 5314 5316 5319 5322 5325 5328 5330 5331 5334 5337 5338 5340 5341 5341 5342 5342 5342 5343 5345 5346 5348 5350 5351 5350
5264 5264 5263 5264 5264 5265 5266 5267 5270 5273 5277 5280 5282 5285 5288 5291 5294 5297 5299 5302 5304 5307 5310 5314 5316 5317 5319 5322 5324 5327 5328 5329 5329 5329 5330 5331 5332 5333 5333 5335 5336 5337 5337
5253 5253 5253 5253 5254 5255 5256 5256 5259 5262 5266 5268 5271 5274 5277 5280 5283 5285 5288 5290 5292 5295 5299 5302 5304 5305 5307 5309 5311 5313 5314 5316 5317 5317 5319 5319 5320 5320 5321 5321 5322 5323 5324
5243 5243 5242 5242 5243 5245 5246 5247 5249 5252 5255 5257 5260 5263 5265 5267 5270 5273 5275 5277 5279 5282 5287 5289 5292 5294 5297 5298 5300 5302 5302 5303 5304 5304 5305 5305 5305 5306 5306 5307 5307 5308 5310
5234 5234 5233 5233 5234 5235 5236 5238 5239 5241 5244 5247 5249 5251 5252 5255 5257 5261 5264 5266 5268 5271 5274 5277 5280 5282 5285 5287 5289 5290 5291 5292 5292 5292 5291 5291 5291 5292 5292 5293 5293 5294 5295